NOAA 16 DEB, 41152

Orbit data source: Space-Track

NOAA 16 DEB, 41152 is space debris in SSO originally from a launch on Thu, 21 Sep 2000 UTC launched from the Air Force Western Test Range (AFWTR). Debris objects in space refer to the collection of defunct objects orbiting the Earth. Examples of debris include non-operational satellites, rocket bodies, and fragments generated from explosions, collisions, or faulty payload assembly.

Loading next visibility...
Identifier
41152, 2000-055CK
Orbit
SSO
Country
Flag of USUS
Related business
Manufacturer
Unknown
Mission
Spacecraft
Bus & Motor
Unknown
Mass
Unknown
Launch date (UTC)
2000-09-21 (26 years ago)
Launch vehicle
Unknown
Launch site
Air Force Western Test Range (AFWTR)
Object type
Payload
Rocket body
Debris
Shape & HBR
Unknown shape, 0.1 m
Radar Cross Section
Medium (>0.1 m² and <1 m²)

Expand to show TLE details & history
Last TLE update: 14 hours ago

TLE from 14 hours ago
0 NOAA 16 DEB
1 41152U 00055CK  26255.57076653  .00003132  00000-0  10456-2 0  9999
2 41152  98.8437  22.7677 0008989 272.9178  87.0980 14.38219595559227
Epoch: 2026-09-12T13:41Z
TLE epoch observation values (Epoch: 2026-09-12T13:41:54.228Z)
Latitude
0.00006°
Longitude
-174.28612°
Altitude
767.003 km
Speed
7.471 km/s
True Right ascension
01h 31m 04s
True Declination
0° 00' 00"
Sunlit
Object was in full shadow at epoch
Visualization orbit readout
Latitude
Unknown
Longitude
Unknown
Altitude
Unknown
Speed
Unknown
Apparent Right ascension
Unknown
Apparent Declination
Unknown
Sunlit
N/A
Visualization observer readout
Local Sidereal Time
19:40:00
Azimuth
Unknown
Elevation
Unknown
Doppler factor
Unknown
Orbital elements
Apogee altitude
767.946 km
Perigee altitude
755.11 km
Semi-major axis
7,139.665 km
Eccentricity
0.0009
Inclination
98.8437°
RAAN
22.7677°
Arg. of periapsis
272.9178°
True anomaly
87.20088°
Mean anomaly
87.098°
Eccentric anomaly
87.14944°
Mean motion
3.59771 °/min
Orbital period
100.06 mins
BSTAR
0.0010456
Loading maneuver chart data...
Computing Atmospheric mass density...
Loading historical data...
Loading historical data...
Loading historical data...
Loading historical data...
Loading historical data...
Loading historical data...
Loading historical data...

Documentation

Showing up to 5 results
|